Time,TemperatureF,DewpointF,PressureIn,WindDirection,WindDirectionDegrees,WindSpeedMPH,WindSpeedGustMPH,Humidity,HourlyPrecipIn,Conditions,Clouds,dailyrainin,SoftwareType,DateUTC
2013-08-31 00:24:00,78.0,73.0,-100.00,SSW,205,7.0,12.0,83,0.00,,,-99.99,,2013-08-31 04:24:00,
2013-08-31 00:54:00,76.0,73.0,-100.00,SSW,205,4.0,9.0,90,0.00,,,-99.99,,2013-08-31 04:54:00,
2013-08-31 01:23:00,77.0,74.0,-100.00,SW,215,6.0,10.0,90,0.00,,,-99.99,,2013-08-31 05:23:00,
2013-08-31 01:52:00,78.0,74.0,-100.00,SW,220,6.0,9.0,89,0.00,,,-99.99,,2013-08-31 05:52:00,
2013-08-31 02:22:00,77.0,74.0,-100.00,SW,225,9.0,12.0,91,0.00,,,-99.99,,2013-08-31 06:22:00,
2013-08-31 02:52:00,77.0,75.0,-100.00,WSW,245,9.0,13.0,94,0.00,,,-99.99,,2013-08-31 06:52:00,
2013-08-31 03:22:00,76.0,75.0,-100.00,WSW,250,7.0,13.0,97,0.00,,,-99.99,,2013-08-31 07:22:00,
2013-08-31 03:52:00,75.0,-99.9,-100.00,WSW,250,7.0,10.0,-999,0.00,,,-99.99,,2013-08-31 07:52:00,
2013-08-31 04:22:00,74.0,-99.9,-100.00,WSW,255,6.0,11.0,-999,0.00,,,-99.99,,2013-08-31 08:22:00,
2013-08-31 04:52:00,74.0,-99.9,-100.00,WSW,240,4.0,6.0,-999,0.00,,,-99.99,,2013-08-31 08:52:00,
2013-08-31 05:23:00,73.0,-99.9,-100.00,WSW,255,6.0,8.0,-999,0.00,,,-99.99,,2013-08-31 09:23:00,
2013-08-31 05:53:00,73.0,-99.9,-100.00,West,260,6.0,9.0,-999,0.00,,,-99.99,,2013-08-31 09:53:00,
2013-08-31 06:24:00,72.0,-99.9,-100.00,WSW,255,6.0,10.0,-999,0.00,,,-99.99,,2013-08-31 10:24:00,
2013-08-31 06:53:00,72.0,-99.9,-100.00,WSW,255,9.0,11.0,-999,0.00,,,-99.99,,2013-08-31 10:53:00,
2013-08-31 07:03:00,72.0,-99.9,-100.00,WSW,255,9.0,11.0,-999,0.00,,,-99.99,,2013-08-31 11:03:00,
2013-08-31 07:12:00,72.0,-99.9,-100.00,WSW,255,9.0,11.0,-999,0.00,,,-99.99,,2013-08-31 11:12:00,
2013-08-31 07:22:00,72.0,-99.9,-100.00,WSW,245,7.0,10.0,-999,0.00,,,-99.99,,2013-08-31 11:22:00,
2013-08-31 07:42:00,73.0,-99.9,-100.00,WSW,255,7.0,10.0,-999,0.00,,,-99.99,,2013-08-31 11:42:00,
2013-08-31 07:52:00,73.0,-99.9,-100.00,WSW,255,7.0,10.0,-999,0.00,,,-99.99,,2013-08-31 11:52:00,
2013-08-31 08:12:00,73.0,-99.9,-100.00,WSW,255,6.0,11.0,-999,0.00,,,-99.99,,2013-08-31 12:12:00,
2013-08-31 08:22:00,73.0,-99.9,-100.00,WSW,245,2.0,4.0,-999,0.00,,,-99.99,,2013-08-31 12:22:00,
2013-08-31 08:52:00,74.0,-99.9,-100.00,WSW,240,3.0,4.0,-999,0.00,,,-99.99,,2013-08-31 12:52:00,
2013-08-31 09:22:00,75.0,-99.9,-100.00,West,260,4.0,7.0,-999,0.00,,,-99.99,,2013-08-31 13:22:00,
2013-08-31 09:52:00,76.0,74.0,-100.00,West,280,4.0,8.0,92,0.00,,,-99.99,,2013-08-31 13:52:00,
2013-08-31 10:22:00,76.0,73.0,-100.00,WSW,250,3.0,5.0,91,0.00,,,-99.99,,2013-08-31 14:22:00,
2013-08-31 10:52:00,78.0,73.0,-100.00,WSW,255,3.0,6.0,85,0.00,,,-99.99,,2013-08-31 14:52:00,
2013-08-31 11:23:00,79.0,73.0,-100.00,SW,235,2.0,6.0,81,0.00,,,-99.99,,2013-08-31 15:23:00,
2013-08-31 11:55:00,80.0,72.0,-100.00,WSW,255,4.0,8.0,75,0.00,,,-99.99,,2013-08-31 15:55:00,
2013-08-31 12:04:00,80.0,72.0,-100.00,WSW,255,4.0,8.0,75,0.00,,,-99.99,,2013-08-31 16:04:00,
2013-08-31 12:25:00,80.0,72.0,-100.00,SW,230,4.0,7.0,76,0.00,,,-99.99,,2013-08-31 16:25:00,
2013-08-31 12:52:00,82.0,70.0,-100.00,SW,215,6.0,10.0,66,0.00,,,-99.99,,2013-08-31 16:52:00,
2013-08-31 13:23:00,83.0,69.0,-100.00,WSW,240,4.0,9.0,62,0.00,,,-99.99,,2013-08-31 17:23:00,
2013-08-31 13:53:00,84.0,67.0,-100.00,SW,225,6.0,11.0,57,0.00,,,-99.99,,2013-08-31 17:53:00,
2013-08-31 14:22:00,85.0,66.0,-100.00,SW,230,6.0,12.0,53,0.00,,,-99.99,,2013-08-31 18:22:00,
2013-08-31 14:52:00,86.0,67.0,-100.00,SW,220,7.0,11.0,53,0.00,,,-99.99,,2013-08-31 18:52:00,
2013-08-31 15:22:00,85.0,66.0,-100.00,SW,230,8.0,11.0,53,0.00,,,-99.99,,2013-08-31 19:22:00,
2013-08-31 15:52:00,85.0,67.0,-100.00,SW,225,4.0,10.0,56,0.00,,,-99.99,,2013-08-31 19:52:00,
2013-08-31 16:22:00,85.0,68.0,-100.00,SW,230,3.0,8.0,56,0.00,,,-99.99,,2013-08-31 20:22:00,
2013-08-31 16:52:00,84.0,70.0,-100.00,West,265,6.0,9.0,62,0.00,,,-99.99,,2013-08-31 20:52:00,
2013-08-31 17:22:00,83.0,71.0,-100.00,West,275,6.0,11.0,66,0.00,,,-99.99,,2013-08-31 21:22:00,
2013-08-31 17:54:00,82.0,72.0,-100.00,West,270,6.0,8.0,71,0.00,,,-99.99,,2013-08-31 21:54:00,
2013-08-31 18:04:00,82.0,72.0,-100.00,West,270,6.0,8.0,71,0.00,,,-99.99,,2013-08-31 22:04:00,
2013-08-31 18:24:00,82.0,72.0,-100.00,East,90,0.0,4.0,73,0.00,,,-99.99,,2013-08-31 22:24:00,
2013-08-31 18:53:00,82.0,71.0,-100.00,East,95,3.0,6.0,71,0.00,,,-99.99,,2013-08-31 22:53:00,
2013-08-31 19:23:00,81.0,71.0,-100.00,ENE,75,2.0,10.0,72,0.00,,,-99.99,,2013-08-31 23:23:00,
2013-08-31 19:52:00,80.0,71.0,-100.00,East,100,2.0,6.0,73,0.00,,,-99.99,,2013-08-31 23:52:00,
2013-08-31 20:11:00,79.0,71.0,-100.00,East,90,2.0,4.0,75,0.00,,,-99.99,,2013-09-01 00:11:00,
2013-08-31 20:22:00,78.0,71.0,-100.00,East,80,1.0,4.0,77,0.00,,,-99.99,,2013-09-01 00:22:00,
2013-08-31 20:52:00,76.0,71.0,-100.00,SW,235,0.0,1.0,82,0.00,,,-99.99,,2013-09-01 00:52:00,
2013-08-31 21:22:00,74.0,71.0,-100.00,SSW,205,1.0,2.0,89,0.00,,,-99.99,,2013-09-01 01:22:00,
2013-08-31 21:52:00,75.0,72.0,-100.00,WSW,240,0.0,1.0,90,0.00,,,-99.99,,2013-09-01 01:52:00,
2013-08-31 22:22:00,74.0,71.0,-100.00,East,85,0.0,0.0,91,0.00,,,-99.99,,2013-09-01 02:22:00,
2013-08-31 22:53:00,74.0,71.0,-100.00,East,95,0.0,1.0,91,0.00,,,-99.99,,2013-09-01 02:53:00,
2013-08-31 23:02:00,74.0,71.0,-100.00,East,95,0.0,1.0,91,0.00,,,-99.99,,2013-09-01 03:02:00,
2013-08-31 23:23:00,73.0,72.0,-100.00,West,265,1.0,2.0,97,0.00,,,-99.99,,2013-09-01 03:23:00,
2013-08-31 23:54:00,72.0,72.0,-100.00,ESE,105,1.0,2.0,97,0.00,,,-99.99,,2013-09-01 03:54:00,